Home   Weather   Rzeszów   Past weeks

Flag for Poland Past Weather in Rzeszów, Poland — Yesterday and Last 2 Weeks

Now
61 °F

Clear.


Feels Like: 61 °F
Forecast: 49 / 74 °F
Wind: 6 mph from Northwest

Location: Rzeszow-Jasionka

Current Time: Aug 30, 2016 at 9:06:08 PM

Latest Report: Aug 30, 2016 at 8:30 PM


Visibility: 10 mi

Pressure: 30.21 "Hg

Humidity: 68%

Dew Point: 50 °F

Location of RzeszówLocation

Past Weather in Rzeszów — Graph

°F

Rzeszów Temperature Yesterday

Maximum temperature yesterday: 86 °F (at 3:00 PM)
Minimum temperature yesterday: 59 °F (at 6:00 AM)
Average temperature yesterday: 72 °F

High & Low Weather Summary for the Past Weeks

 TemperatureHumidityPressure
High86 °F (Aug 28, 1:30 PM)100% (Aug 17, 4:30 AM)30.30 "Hg (Aug 17, 4:30 AM)
Low45 °F (Aug 18, 5:30 AM)32% (Aug 20, 4:00 PM)29.86 "Hg (Aug 18, 4:30 PM)
Average65 °F72%30.10 "Hg
* Reported Aug 15 8:00 PM — Aug 30 8:00 PM, Rzeszów, Weather by CustomWeather, © 2016

Note: Actual official high and low records may vary slightly from our data, if they occured in-between our weather recording intervals... More about our weather records

Advertising

Rzeszów Weather History for the Previous 24 Hours

Scroll right to see more
 ConditionsComfort  
Time TempWeatherWind HumidityBarometerVisibility
8:00 PM
Tue, Aug 30
63 °FSunny.6 mph59%30.18 "Hg10 mi
7:30 PM64 °FSunny.3 mph56%30.18 "Hg10 mi
7:00 PM66 °FSunny.5 mph52%30.18 "Hg10 mi
6:30 PM68 °FPassing clouds.5 mph49%30.18 "HgN/A
6:00 PM70 °FSunny.9 mph43%30.18 "Hg10 mi
5:30 PM70 °FSunny.12 mph43%30.18 "Hg10 mi
5:00 PM70 °FSunny.13 mph46%30.15 "Hg10 mi
4:30 PM68 °FSunny.13 mph49%30.18 "Hg10 mi
4:00 PM72 °FScattered clouds.15 mph47%30.18 "HgN/A
3:30 PM72 °FPassing clouds.14 mph50%30.18 "HgN/A
3:00 PM68 °FScattered clouds.10 mph60%30.18 "HgN/A
2:30 PM70 °FScattered clouds.9 mph57%30.18 "HgN/A
2:00 PM68 °FScattered clouds.16 mph60%30.18 "HgN/A
1:30 PM68 °FScattered clouds.13 mph60%30.18 "HgN/A
1:00 PM68 °FPartly sunny.12 mph60%30.18 "HgN/A
12:30 PM70 °FPartly sunny.12 mph57%30.18 "HgN/A
12:00 PM68 °FPartly sunny.12 mph60%30.18 "HgN/A
11:30 AM68 °FScattered clouds.10 mph60%30.18 "HgN/A
11:00 AM66 °FPassing clouds.10 mph68%30.18 "HgN/A
10:30 AM66 °FPassing clouds.12 mph68%30.18 "HgN/A
10:00 AM64 °FScattered clouds.8 mph73%30.18 "HgN/A
9:30 AM64 °FScattered clouds.9 mph78%30.15 "HgN/A
9:00 AM63 °FPartly sunny.9 mph77%30.15 "HgN/A
8:30 AM63 °FPassing clouds.12 mph77%30.15 "HgN/A
8:00 AM64 °FPassing clouds.9 mph83%30.12 "HgN/A
7:30 AM64 °FSunny.7 mph88%30.12 "Hg10 mi
7:00 AM63 °FClear.7 mph94%30.09 "Hg5 mi
6:30 AM63 °FClear.5 mph94%30.09 "Hg5 mi
6:00 AM63 °FClear.7 mph100%30.09 "Hg5 mi
5:30 AM63 °FPassing clouds.7 mph100%30.07 "Hg5 mi
5:00 AM64 °FSprinkles. Passing clouds.8 mph94%30.07 "Hg5 mi
4:30 AM64 °FClear.8 mph94%30.07 "Hg5 mi
4:00 AM64 °FClear.8 mph94%30.07 "Hg5 mi
3:30 AM64 °FPassing clouds.6 mph94%30.07 "Hg4 mi
3:00 AM64 °FFog.6 mph100%30.07 "Hg3 mi
2:30 AM64 °FPassing clouds.5 mph100%30.07 "Hg4 mi
2:00 AM64 °FLight rain. Passing clouds.6 mph100%30.07 "Hg4 mi
1:30 AM66 °FLight rain. Passing clouds.8 mph94%30.07 "Hg5 mi
1:00 AM66 °FPassing clouds.8 mph94%30.07 "HgN/A
12:30 AM64 °FLight rain. Clear.9 mph100%30.04 "HgN/A
12:00 AM64 °FLight rain. Clear.5 mph100%30.04 "HgN/A
11:30 PM
Mon, Aug 29
64 °FClear.5 mph100%30.04 "Hg10 mi
11:00 PM66 °FPassing clouds.6 mph94%30.04 "HgN/A
10:30 PM66 °FPassing clouds.6 mph94%30.01 "HgN/A
10:00 PM66 °FSprinkles. Passing clouds.9 mph94%30.01 "HgN/A
9:30 PM66 °FSprinkles. Passing clouds.8 mph94%30.01 "HgN/A
9:00 PM66 °FSprinkles. Passing clouds.17 mph88%29.98 "HgN/A
Weather by CustomWeather, © 2016

See weather overviewHow to use our weather pages